Location: Newark
(7.1028°S, 35.3258°W)
Time: 20:35:43
(UTC+00:00)

Vanguard 3 - Pass Details

Date: 20 February 2020
Orbit: 508 x 3263 km, 33.4° (Epoch: 07 April)

Event Time Altitude Azimuth Distance (km) Brightness Sun altitude
Rises 07:39:54 0° 235° (SW) 3,235 - -12.0°
Exits shadow 07:41:05 - 235° (SW) 2,728 9.5 -11.8°
Reaches altitude 10° 07:42:40 10° 234° (SW) 2,054 8.8 -11.4°
Maximum altitude 07:47:04 84° 144° (SE) 538 6.3 -10.3°
Drops below altitude 10° 07:50:42 10° 57° (ENE) 1,708 9.5 -9.4°
Sets 07:52:49 0° 56° (ENE) 2,628 10.5 -8.9°
